This is the latest recevied weather packets stored in our database for station/object JH5EWP-13. If no packets are shown the sender has not sent any weather packets the latest 10 day(s).
| Time | Temp. | Humidity | Pressure | Rain* | Wind** | Luminosity | Snow |
|---|---|---|---|---|---|---|---|
| 1788229448 | 32.78° C | 40% | 1002.8 hPa | 0 mm | - | - | - |
| 1788227649 | 32.78° C | 41% | 1003.1 hPa | 0 mm | - | - | - |
| 1788225849 | 33.33° C | 41% | 1003.1 hPa | 0 mm | - | - | - |
| 1788224048 | 33.33° C | 41% | 1003.2 hPa | 0 mm | - | - | - |
| 1788222247 | 33.33° C | 41% | 1003.3 hPa | 0 mm | - | - | - |
| 1788220449 | 32.22° C | 44% | 1003.2 hPa | 0 mm | - | - | - |
| 1788218648 | 32.22° C | 43% | 1003.2 hPa | 0 mm | - | - | - |
| 1788216848 | 32.22° C | 43% | 1003 hPa | 0 mm | - | - | - |
| 1788215067 | 30° C | 44% | 1003.1 hPa | 0 mm | - | - | - |
| 1788213248 | 27.78° C | 44% | 1003.1 hPa | 0 mm | - | - | - |
| 1788211448 | 26.67° C | 48% | 1002.9 hPa | 0 mm | - | - | - |
| 1788209647 | 25° C | 48% | 1002.7 hPa | 0 mm | - | - | - |
| 1788207848 | 25° C | 48% | 1002.7 hPa | 0 mm | - | - | - |
| 1788206048 | 25.56° C | 48% | 1002.8 hPa | 0 mm | - | - | - |
| 1788204247 | 25.56° C | 48% | 1002.7 hPa | 0 mm | - | - | - |
| 1788202449 | 25.56° C | 48% | 1002.8 hPa | 0 mm | - | - | - |
| 1788200648 | 26.11° C | 48% | 1003.1 hPa | 0 mm | - | - | - |
| 1788198848 | 26.11° C | 48% | 1002.9 hPa | 0 mm | - | - | - |
| 1788197049 | 26.11° C | 48% | 1003 hPa | 0 mm | - | - | - |
| 1788195248 | 26.67° C | 48% | 1002.9 hPa | 0 mm | - | - | - |
| 1788193448 | 26.67° C | 48% | 1002.9 hPa | 0 mm | - | - | - |
| 1788191649 | 26.67° C | 48% | 1002.9 hPa | 0 mm | - | - | - |
| 1788189848 | 26.67° C | 48% | 1002.9 hPa | 0 mm | - | - | - |
| 1788188048 | 26.67° C | 48% | 1002.7 hPa | 0 mm | - | - | - |
| 1788186247 | 27.22° C | 49% | 1002.3 hPa | 0 mm | - | - | - |
* Rain latest hour (hover to see other rain measurements)
** Current wind speed in m/s (hover to see current wind gust speed)